EW4557 Weather Reports


Display with metric or nautical units.
time (UTC)temp
F
wind
direction
speed
MPH
gust
MPH
rain 1hr
in
rain 24hr
in
rain mn
in
humidity
%
barometer
mb
20260902180516 90 0 6.0 12.0 0.00 0.06 0.00 37 1020.9
20260902175515 89 0 5.0 13.0 0.00 0.06 0.00 38 1021.1
20260902174636 89 0 5.0 12.0 0.00 0.06 0.00 38 1021.0
20260902173515 88 0 5.0 10.0 0.00 0.06 0.00 39 1020.9
20260902172515 87 0 3.0 9.0 0.00 0.06 0.00 42 1021.0
20260902171635 87 0 6.0 9.0 0.00 0.06 0.00 42 1021.2
20260902170555 87 0 4.0 10.0 0.00 0.06 0.00 45 1021.3
20260902165515 85 0 4.0 10.0 0.00 0.06 0.00 48 1021.1
20260902164515 83 0 2.0 5.0 0.00 0.06 0.00 51 1021.1
20260902163515 82 0 4.0 8.0 0.00 0.06 0.00 53 1020.9
20260902162515 82 0 3.0 8.0 0.00 0.06 0.00 52 1020.9
20260902161515 84 0 4.0 13.0 0.00 0.06 0.00 50 1021.2
20260902160555 83 0 3.0 9.0 0.00 0.06 0.00 51 1021.1
20260902155515 82 0 3.0 10.0 0.00 0.06 0.00 52 1020.9
20260902154635 81 0 4.0 11.0 0.00 0.06 0.00 53 1020.6
20260902153515 80 0 3.0 8.0 0.00 0.06 0.00 56 1020.7
20260902151515 79 0 2.0 5.0 0.00 0.06 0.00 59 1020.7
20260902150515 78 0 4.0 9.0 0.00 0.06 0.00 59 1020.4
20260902145555 77 0 2.0 8.0 0.00 0.06 0.00 63 1020.5
20260902144515 76 0 4.0 9.0 0.00 0.06 0.00 65 1020.5
20260902143515 75 0 1.0 3.0 0.00 0.06 0.00 71 1020.4
20260902141515 72 0.0 0.0 0.00 0.06 0.00 77 1020.1
20260902140515 70 0.0 0.0 0.00 0.06 0.00 82 1020.0
20260902135515 68 0.0 0.0 0.00 0.06 0.00 86 1019.8
20260902134515 67 0.0 0.0 0.00 0.06 0.00 89 1019.6
20260902133515 65 0.0 0.0 0.00 0.06 0.00 91 1019.4
20260902132555 63 0.0 0.0 0.00 0.06 0.00 92 1019.0
20260902130635 62 0.0 1.0 0.00 0.06 0.00 91 1018.8
20260902125515 62 0.0 1.0 0.00 0.06 0.00 91 1018.6
20260902124555 61 0.0 0.0 0.00 0.06 0.00 91 1018.5
20260902123555 61 0.0 0.0 0.00 0.06 0.00 91 1018.4
20260902122515 61 0.0 0.0 0.00 0.06 0.00 90 1018.2
20260902121635 61 0.0 2.0 0.00 0.06 0.00 91 1017.9
20260902115515 61 0 0.0 1.0 0.00 0.06 0.00 90 1017.7
20260902114515 61 0.0 0.0 0.00 0.06 0.00 89 1017.5
20260902113515 61 0.0 0.0 0.00 0.06 0.00 89 1017.4
20260902112517 61 0.0 0.0 0.00 0.06 0.00 89 1017.3
20260902111517 62 0.0 0.0 0.00 0.06 0.00 89 1017.4
20260902110557 62 0.0 0.0 0.00 0.06 0.00 89 1017.5
20260902105557 62 0.0 0.0 0.00 0.06 0.00 89 1017.5
20260902103637 63 0 0.0 1.0 0.00 0.06 0.00 89 1018.4
20260902102556 63 0.0 0.0 0.00 0.06 0.00 89 1019.2
20260902101557 63 0.0 0.0 0.00 0.06 0.00 89 1019.8
20260902100516 63 0.0 0.0 0.00 0.06 0.00 89 1019.7
20260902095517 63 0.0 0.0 0.00 0.06 0.00 89 1020.0
20260902094516 63 0 0.0 2.0 0.00 0.06 0.00 89 1020.3
20260902093637 63 0.0 0.0 0.00 0.06 0.00 89 1020.3
20260902092556 63 0.0 0.0 0.00 0.06 0.00 89 1020.4
20260902091516 63 0.0 0.0 0.00 0.06 0.00 88 1020.3
20260902085636 64 0.0 0.0 0.00 0.06 0.00 88 1020.4
20260902084636 64 0.0 0.0 0.00 0.06 0.00 88 1020.4
20260902083556 64 0.0 0.0 0.00 0.06 0.00 88 1020.4
20260902082516 64 0.0 0.0 0.00 0.06 0.00 88 1020.2
20260902081636 65 0.0 0.0 0.00 0.06 0.00 88 1020.6
20260902080516 65 0.0 0.0 0.00 0.06 0.00 87 1020.6
20260902075516 65 0.0 0.0 0.00 0.06 0.00 87 1020.7
20260902074516 65 0.0 0.0 0.00 0.06 0.00 87 1020.8
20260902073516 65 0.0 0.0 0.00 0.06 0.00 86 1020.6
20260902072516 66 0.0 0.0 0.00 0.06 0.00 86 1020.6
20260902070556 66 0.0 0.0 0.00 0.06 0.00 86 1020.5
20260902065516 67 0.0 0.0 0.00 0.06 0.00 85 1020.3
20260902064636 67 0.0 0.0 0.00 0.06 0.00 85 1020.4
20260902063636 67 0.0 0.0 0.00 0.06 0.00 84 1020.8
20260902062556 68 0.0 0.0 0.00 0.06 0.00 84 1021.0
20260902061516 68 0.0 0.0 0.00 0.06 0.00 83 1020.7
20260902060556 69 0.0 0.0 0.00 0.06 0.00 83 1020.7
20260902055515 69 0.0 0.0 0.00 0.06 0.06 83 1020.4
20260902054515 69 0.0 0.0 0.00 0.06 0.06 82 1020.3
20260902053635 69 0.0 0.0 0.00 0.06 0.06 82 1019.9
20260902050515 70 0 2.0 4.0 0.00 0.06 0.06 82 1020.4
20260902045515 70 0.0 2.0 0.00 0.06 0.06 82 1020.1
20260902044635 71 0 1.0 2.0 0.00 0.06 0.06 81 1020.4
20260902043555 71 0 1.0 2.0 0.00 0.06 0.06 80 1020.5
20260902042555 71 0 1.0 6.0 0.00 0.06 0.06 81 1020.6
20260902040515 71 0 0.0 3.0 0.00 0.06 0.06 80 1020.4
20260902035515 71 0 1.0 3.0 0.00 0.06 0.06 81 1020.0
20260902033635 70 0.0 0.0 0.00 0.06 0.06 81 1019.9
20260902032555 70 0.0 0.0 0.00 0.06 0.06 82 1019.6
20260902031635 71 0.0 0.0 0.00 0.06 0.06 80 1019.5
20260902030515 71 0.0 0.0 0.00 0.06 0.06 80 1019.5
20260902025555 72 0.0 0.0 0.00 0.06 0.06 79 1019.2
20260902024555 72 0.0 0.0 0.00 0.06 0.06 78 1019.1
20260902023515 72 0.0 0.0 0.00 0.06 0.06 77 1018.7
20260902022515 73 0.0 2.0 0.00 0.06 0.06 75 1018.5
20260902021515 73 0.0 0.0 0.00 0.06 0.06 74 1017.9
20260902020517 74 0 0.0 3.0 0.01 0.06 0.06 72 1017.7
20260902014517 75 0 2.0 5.0 0.01 0.06 0.06 70 1016.8
20260902013517 76 0 2.0 5.0 0.01 0.06 0.06 71 1016.6
20260902012557 76 0.0 0.0 0.01 0.06 0.06 69 1016.2
20260902011637 76 0.0 3.0 0.01 0.06 0.06 69 1016.1
20260902010635 77 0 2.0 5.0 0.00 0.05 0.05 67 1016.1
20260902005557 77 0 3.0 5.0 0.00 0.05 0.05 64 1016.0
20260902004516 77 0 2.0 5.0 0.00 0.05 0.05 65 1016.1
20260902003637 77 0 3.0 5.0 0.00 0.05 0.05 64 1016.2
20260902002516 77 0.0 1.0 0.00 0.05 0.05 64 1016.1
20260902001516 76 0 1.0 3.0 0.00 0.05 0.05 65 1016.3
20260902000516 76 0 0.0 2.0 0.00 0.05 0.05 66 1016.4
20260901235516 76 0 1.0 2.0 0.00 0.05 0.05 66 1016.4
20260901230516 73 0 2.0 10.0 0.05 0.05 0.05 76 1015.4
20260901225636 72 0 4.0 10.0 0.05 0.05 0.05 75 1015.6
20260901224516 73 0 5.0 13.0 0.04 0.04 0.04 73 1015.4
20260901223556 77 359 6.0 14.0 0.03 0.03 0.03 62 1015.8
20260901222516 83 359 6.0 17.0 0.01 0.01 0.01 50 1016.2
20260901221516 89 0 8.0 21.0 0.00 0.00 0.00 35 1016.2
20260901220556 90 0 4.0 10.0 0.00 0.00 0.00 34 1015.8
20260901215516 91 0 4.0 10.0 0.00 0.00 0.00 33 1015.8
20260901214556 93 0 2.0 13.0 0.00 0.00 0.00 32 1016.2
20260901213556 93 0 3.0 14.0 0.00 0.00 0.00 33 1016.6
20260901212556 94 0 3.0 12.0 0.00 0.00 0.00 32 1016.7
20260901211636 93 0 4.0 11.0 0.00 0.00 0.00 32 1017.0
20260901210636 93 0 5.0 11.0 0.00 0.00 0.00 33 1017.2
20260901205556 92 0 4.0 14.0 0.00 0.00 0.00 34 1017.4
20260901204516 92 0 5.0 12.0 0.00 0.00 0.00 33 1017.6
20260901203636 93 0 6.0 14.0 0.00 0.00 0.00 33 1018.1
20260901202516 90 0 3.0 12.0 0.00 0.00 0.00 36 1017.8
20260901201556 92 0 8.0 17.0 0.00 0.00 0.00 34 1018.3
20260901195516 92 0 3.0 10.0 0.00 0.00 0.00 36 1018.7
20260901193636 91 0 3.0 11.0 0.00 0.00 0.00 37 1018.9
20260901191556 89 0 3.0 12.0 0.00 0.00 0.00 40 1019.3
20260901190516 88 0 3.0 12.0 0.00 0.00 0.00 41 1019.5
20260901185556 88 0 7.0 16.0 0.00 0.00 0.00 39 1019.6
20260901184516 88 0 3.0 9.0 0.00 0.00 0.00 40 1019.7
20260901183516 90 0 4.0 15.0 0.00 0.00 0.00 38 1020.3
20260901182516 90 0 2.0 10.0 0.00 0.00 0.00 39 1020.6
20260901181516 89 0 4.0 14.0 0.00 0.00 0.00 39 1020.7